Location: Kolin
(50.0330°N, 15.2000°E)
Time: 10:45:23
(UTC+02:00)

ISS - Pass Details

Date: 20 May 2021
Orbit: 417 x 422 km, 51.6° (Epoch: 13 June)

Event Time Altitude Azimuth Distance (km) Brightness Sun altitude
Rises 01:19:39 0° 287° (WNW) 2,371 0.2 -19.8°
Reaches altitude 10° 01:21:47 10° 283° (WNW) 1,505 -0.9 -19.8°
Enters shadow 01:23:17 24° 274° (W) 932 -2.1 -19.7°
